RH
37 37 37 38 38 37 38 39 39 39 40 37 40 45 50 54 53 51 50 49 46 40 37 37 37 36 36 40 44 48 57 67 77 88 86 92 89 91 88 89 88 86 80
39 40 39 39 39 38 38 37 36 37 38 42 47 45 48 51 54 57 57 55 52 46 42 39 37 36 36 34 31 34 42 47 57 72 82 83 83 80 93 74 70 71 76
41 40 39 41 42 41 40 39 38 39 42 45 46 53 50 51 53 55 58 61 58 54 49 44 42 42 41 36 34 33 32 40 43 51 63 69 68 67 64 58 58 61 63
41 43 43 45 48 46 45 46 46 48 47 48 49 51 50 63 52 56 58 61 61 58 50 50 49 49 45 39 36 36 35 35 37 44 45 56 62 63 58 55 50 51 57
47 46 47 48 49 50 51 52 56 54 54 59 63 62 63 68 74 62 62 62 55 57 60 60 61 60 54 48 41 37 38 39 39 42 46 47 52 60 65 60 63 63 47
50 50 51 53 54 54 54 54 57 59 62 65 75 78 76 70 76 74 74 70 70 68 66 62 64 59 56 55 47 48 43 42 48 50 48 47 49 50 55 61 55 48 46
53 53 54 56 54 52 52 54 56 58 62 67 75 81 84 82 83 83 91 89 83 79 77 69 56 52 45 46 50 48 45 42 44 50 52 52 51 49 44 44 51 47 43
58 58 57 53 51 47 44 45 47 54 58 65 67 67 66 71 80 85 87 90 92 90 79 59 53 42 43 49 52 52 50 46 44 40 51 48 48 50 46 44 45 48 44
62 59 55 50 47 47 45 41 40 41 48 57 68 69 73 78 79 79 70 69 88 89 67 55 55 53 46 42 43 47 52 53 51 48 43 50 49 45 47 46 47 49 49
64 62 55 53 52 51 47 43 42 42 44 49 55 57 68 73 77 82 75 74 73 75 69 68 61 47 44 40 42 45 47 56 55 51 45 43 49 50 45 45 49 48 50
71 66 59 56 54 53 50 47 44 46 48 49 50 65 68 60 63 77 80 79 81 81 81 75 65 59 50 49 47 46 49 57 59 58 51 46 46 47 46 46 51 49 50
76 71 66 61 58 56 53 51 49 50 51 53 52 53 66 75 75 74 80 77 77 81 79 69 62 56 52 52 52 51 52 54 60 60 61 59 54 55 52 54 58 54 54
82 78 73 68 65 62 59 55 53 53 55 57 58 59 60 65 84 85 83 82 83 79 71 65 63 63 60 58 57 56 57 58 59 64 66 70 66 60 63 64 65 65 64
87 81 77 74 74 69 64 55 56 57 58 59 61 61 61 62 60 68 76 74 73 69 67 66 63 62 61 58 59 61 63 63 64 64 63 64 69 69 64 58 60 60 57
87 83 83 82 79 72 62 57 57 59 61 64 68 68 66 63 60 60 58 58 56 55 54 54 55 54 51 54 59 62 64 63 64 64 66 67 66 64 62 64 59 58 60
89 90 89 86 80 71 61 59 63 64 62 64 65 65 63 59 57 54 49 47 44 40 38 36 35 34 30 32 35 45 55 62 65 67 68 69 68 67 65 62 61 60 61
96 95 91 89 81 68 61 65 64 65 66 66 64 61 57 54 52 46 40 35 31 28 26 25 27 25 25 24 24 24 27 33 40 51 62 68 70 67 69 68 65 65 64
95 94 90 89 75 64 65 65 71 78 76 71 66 60 56 48 42 39 39 36 30 27 25 22 22 20 21 24 22 22 23 23 24 25 30 40 57 63 68 69 71 72 72
96 95 92 80 64 60 67 73 77 81 78 70 61 52 48 49 46 36 32 26 32 31 27 26 24 24 21 19 19 18 20 22 22 21 21 22 31 34 50 59 67 71 73
97 93 79 60 60 69 73 79 79 75 63 51 44 47 44 36 32 34 35 29 26 21 18 15 16 20 18 16 18 16 14 13 15 18 19 18 18 21 23 28 31 57 65
89 80 63 59 73 76 80 78 76 58 50 48 38 35 36 44 40 27 21 18 17 17 19 21 15 13 12 13 10 8 7 6 6 6 6 7 8 9 13 18 21 27 36
75 63 64 75 82 82 79 76 65 52 44 47 45 41 29 26 23 22 24 23 24 24 26 25 24 22 13 10 8 6 6 5 5 5 5 5 5 4 5 4 6 9 17
65 69 82 87 86 86 80 62 53 47 36 32 29 26 23 22 27 29 30 28 28 28 27 26 25 24 22 17 8 7 7 6 6 6 5 5 5 5 4 4 4 4 5
80 85 88 86 88 86 62 48 52 46 44 38 33 31 27 30 32 31 30 30 30 29 28 27 27 25 22 19 14 11 9 7 7 8 7 6 6 6 5 5 5 5 5
86 90 88 89 86 65 48 50 45 37 31 30 30 30 32 33 32 27 30 33 31 29 28 28 27 24 22 20 11 9 8 8 9 12 10 8 8 7 7 8 9 9 6
92 90 90 87 68 54 44 41 32 28 28 29 30 29 32 32 33 33 35 25 25 27 24 27 26 24 22 15 12 16 16 16 17 19 19 18 18 18 17 16 16 16 15